Location: Newark
(43.0000°N, 1.6781°W)
Time: 09:50:20
(UTC+00:00)

AO-7 - Pass Details

Date: 11 December 2022
Orbit: 1440 x 1459 km, 101.9° (Epoch: 28 January)

Event Time Altitude Azimuth Distance (km) Brightness Sun altitude
Rises 06:22:12 0° 12° (NNE) 4,546 ? -11.6°
Reaches altitude 10° 06:25:14 10° 4° (N) 3,566 ? -11.1°
Maximum altitude 06:32:29 36° 303° (WNW) 2,157 ? -9.8°
Drops below altitude 10° 06:39:45 10° 242° (WSW) 3,563 ? -8.6°
Sets 06:42:48 0° 234° (SW) 4,541 ? -8.1°
